Preview of NWS' New Version of Forecast
This preview is not operational and should not be used for support decisions.

Regional Weather Roundup (RWR)

Issued by National Weather Service (NWS)

                            
000
ASUS45 KBOI 201610
RWRID 

IDAHO REGIONAL WEATHER ROUNDUP
NATIONAL WEATHER SERVICE BOISE ID
900 AM MST WED FEB 20 2019

NOTE: "FAIR" INDICATES FEW OR NO CLOUDS BELOW 12000 FEET
WITH NO SIGNIFICANT WEATHER AND/OR OBSTRUCTIONS TO VISIBILITY

IDZ012-014-201700-
SOUTHWEST IDAHO

  
CITY           SKY/WX    TMP DP  RH WIND       PRES   REMARKS
BOISE          LGT SNOW  28  25  88 SE9       29.69S FOG     WCI  19  
CALDWELL       LGT SNOW  30  28  93 MISG      29.71R VSB 1            
MOUNTAIN HOME  LGT SNOW  25  25 100 E6        29.70S VSB 3/4 WCI  18  
$$

IDZ016-017-201700-
SOUTHCENTRAL IDAHO

  
CITY           SKY/WX    TMP DP  RH WIND       PRES   REMARKS
BURLEY         LGT SNOW  24  20  84 SW14      29.66S VSB 1   WCI  12  
JEROME         LGT SNOW  24  23  96 S5        29.67S FOG     WCI  18  
TWIN FALLS     CLOUDY    26  22  84 SW8       29.67S WCI  18          
$$

IDZ019>023-201700-
SOUTHEAST IDAHO

  
CITY           SKY/WX    TMP DP  RH WIND       PRES   REMARKS
IDAHO FALLS    CLOUDY     5   2  87 N5        29.67S FOG     WCI  -4  
POCATELLO      LGT SNOW  17  13  84 N3        29.68R VSB 3/4          
REXBURG        FLURRIES  12   8  84 CALM      29.65R                  
$$

IDZ006-010-011-018-031-032-201700-
CENTRAL IDAHO MOUNTAINS

  
CITY           SKY/WX    TMP DP  RH WIND       PRES   REMARKS
MCCALL         CLOUDY    13  10  88 CALM      29.57S                  
HAILEY         CLOUDY    14   9  79 W7        29.63S WCI   4          
STANLEY          N/A     11   4  73 SE3       29.57R                  
SALMON         CLOUDY    19  17  92 CALM      29.66R                  
CHALLIS        CLOUDY    17  12  80 CALM      29.61R                  
$$

IDZ002-004-006-007-026-201700-
NORTHERN IDAHO

  
CITY           SKY/WX    TMP DP  RH WIND       PRES   REMARKS
LEWISTON       LGT SNOW  27  25  92 W5        29.74R FOG     WCI  22  
LOWELL         NOT AVBL                                               
COEUR D'ALENE  CLOUDY    22  18  85 N10       29.73R FOG     WCI  11  
MULLAN PASS    CLOUDY    14  10  84 CALM      29.51S                  
$$